Time,TemperatureF,DewpointF,PressureIn,WindDirection,WindDirectionDegrees,WindSpeedMPH,WindSpeedGustMPH,Humidity,HourlyPrecipIn,Conditions,Clouds,dailyrainin,SoftwareType,DateUTC
2013-07-30 00:22:00,64.0,50.0,29.97,North,0,0.0,-999.0,59,-99.99,,,-99.99,,2013-07-30 07:22:00,
2013-07-30 00:33:00,64.0,50.0,29.97,North,0,0.0,-999.0,59,-99.99,,,-99.99,,2013-07-30 07:33:00,
2013-07-30 00:53:00,63.0,52.0,29.97,North,0,0.0,-999.0,67,-99.99,,,-99.99,,2013-07-30 07:53:00,
2013-07-30 01:22:00,63.0,54.0,29.98,North,0,0.0,-999.0,72,-99.99,,,-99.99,,2013-07-30 08:22:00,
2013-07-30 01:33:00,63.0,54.0,29.98,North,0,0.0,-999.0,72,-99.99,,,-99.99,,2013-07-30 08:33:00,
2013-07-30 01:52:00,64.0,54.0,29.99,North,0,0.0,-999.0,67,-99.99,,,-99.99,,2013-07-30 08:52:00,
2013-07-30 02:22:00,66.0,54.0,30.00,WNW,300,6.0,-999.0,63,-99.99,,,-99.99,,2013-07-30 09:22:00,
2013-07-30 02:32:00,66.0,54.0,30.00,WNW,300,6.0,-999.0,63,-99.99,,,-99.99,,2013-07-30 09:32:00,
2013-07-30 02:53:00,66.0,54.0,30.00,WNW,290,6.0,-999.0,63,-99.99,,,-99.99,,2013-07-30 09:53:00,
2013-07-30 03:22:00,64.0,54.0,30.01,WNW,290,9.0,-999.0,67,-99.99,,,-99.99,,2013-07-30 10:22:00,
2013-07-30 03:32:00,64.0,54.0,30.01,WNW,290,9.0,-999.0,67,-99.99,,,-99.99,,2013-07-30 10:32:00,
2013-07-30 03:52:00,64.0,54.0,30.01,WNW,300,10.0,-999.0,67,-99.99,,,-99.99,,2013-07-30 10:52:00,
2013-07-30 04:22:00,64.0,54.0,30.01,WNW,300,6.0,-999.0,67,-99.99,,,-99.99,,2013-07-30 11:22:00,
2013-07-30 04:33:00,64.0,54.0,30.01,WNW,300,6.0,-999.0,67,-99.99,,,-99.99,,2013-07-30 11:33:00,
2013-07-30 04:53:00,64.0,54.0,30.02,WNW,300,9.0,-999.0,67,-99.99,,,-99.99,,2013-07-30 11:53:00,
2013-07-30 05:22:00,63.0,54.0,30.02,NW,310,9.0,-999.0,72,-99.99,,,-99.99,,2013-07-30 12:22:00,
2013-07-30 05:33:00,63.0,54.0,30.02,NW,310,9.0,-999.0,72,-99.99,,,-99.99,,2013-07-30 12:33:00,
2013-07-30 05:53:00,63.0,54.0,30.03,WNW,300,7.0,-999.0,72,-99.99,,,-99.99,,2013-07-30 12:53:00,
2013-07-30 06:22:00,61.0,54.0,30.05,North,0,0.0,-999.0,77,-99.99,,,-99.99,,2013-07-30 13:22:00,
2013-07-30 06:32:00,61.0,54.0,30.05,North,0,0.0,-999.0,77,-99.99,,,-99.99,,2013-07-30 13:32:00,
2013-07-30 07:22:00,59.0,54.0,30.06,North,0,0.0,-999.0,82,-99.99,,,-99.99,,2013-07-30 14:22:00,
2013-07-30 07:32:00,59.0,54.0,30.06,North,0,0.0,-999.0,82,-99.99,,,-99.99,,2013-07-30 14:32:00,
2013-07-30 08:22:00,63.0,55.0,30.08,South,190,3.0,-999.0,77,-99.99,,,-99.99,,2013-07-30 15:22:00,
2013-07-30 08:33:00,63.0,55.0,30.08,South,190,3.0,-999.0,77,-99.99,,,-99.99,,2013-07-30 15:33:00,
2013-07-30 09:22:00,68.0,55.0,30.07,WNW,290,3.0,-999.0,64,-99.99,,,-99.99,,2013-07-30 16:22:00,
2013-07-30 09:33:00,68.0,55.0,30.07,WNW,290,3.0,-999.0,64,-99.99,,,-99.99,,2013-07-30 16:33:00,
2013-07-30 09:52:00,70.0,55.0,30.07,WNW,300,5.0,-999.0,60,-99.99,,,-99.99,,2013-07-30 16:52:00,
2013-07-30 10:22:00,72.0,55.0,30.06,NW,320,5.0,-999.0,56,-99.99,,,-99.99,,2013-07-30 17:22:00,
2013-07-30 10:32:00,72.0,55.0,30.06,NW,320,5.0,-999.0,56,-99.99,,,-99.99,,2013-07-30 17:32:00,
2013-07-30 11:23:00,77.0,54.0,30.06,WNW,300,8.0,-999.0,44,-99.99,,,-99.99,,2013-07-30 18:23:00,
2013-07-30 11:32:00,77.0,54.0,30.06,WNW,300,8.0,-999.0,44,-99.99,,,-99.99,,2013-07-30 18:32:00,
2013-07-30 11:52:00,77.0,52.0,30.06,WNW,300,12.0,20.0,41,-99.99,,,-99.99,,2013-07-30 18:52:00,
2013-07-30 12:22:00,77.0,54.0,30.06,WNW,300,13.0,21.0,44,-99.99,,,-99.99,,2013-07-30 19:22:00,
2013-07-30 12:33:00,77.0,54.0,30.06,WNW,300,13.0,21.0,44,-99.99,,,-99.99,,2013-07-30 19:33:00,
2013-07-30 13:22:00,77.0,54.0,30.06,NW,310,14.0,22.0,44,-99.99,,,-99.99,,2013-07-30 20:22:00,
2013-07-30 13:32:00,77.0,54.0,30.06,NW,310,14.0,22.0,44,-99.99,,,-99.99,,2013-07-30 20:32:00,
2013-07-30 13:52:00,79.0,52.0,30.05,WNW,300,10.0,20.0,39,-99.99,,,-99.99,,2013-07-30 20:52:00,
2013-07-30 14:52:00,81.0,52.0,30.04,WNW,300,13.0,17.0,36,-99.99,,,-99.99,,2013-07-30 21:52:00,
2013-07-30 16:22:00,82.0,50.0,30.02,WNW,300,14.0,20.0,32,-99.99,,,-99.99,,2013-07-30 23:22:00,
2013-07-30 16:32:00,82.0,50.0,30.02,WNW,300,14.0,20.0,32,-99.99,,,-99.99,,2013-07-30 23:32:00,
2013-07-30 16:53:00,82.0,50.0,30.02,WNW,300,14.0,21.0,32,-99.99,,,-99.99,,2013-07-30 23:53:00,
2013-07-30 17:22:00,82.0,48.0,30.01,WNW,300,13.0,21.0,30,-99.99,,,-99.99,,2013-07-31 00:22:00,
2013-07-30 17:32:00,82.0,48.0,30.01,WNW,300,13.0,21.0,30,-99.99,,,-99.99,,2013-07-31 00:32:00,
2013-07-30 18:22:00,82.0,48.0,30.01,WNW,300,13.0,23.0,30,-99.99,,,-99.99,,2013-07-31 01:22:00,
2013-07-30 18:32:00,82.0,48.0,30.01,WNW,300,13.0,23.0,30,-99.99,,,-99.99,,2013-07-31 01:32:00,
2013-07-30 19:12:00,81.0,50.0,30.01,West,280,8.0,16.0,34,-99.99,,,-99.99,,2013-07-31 02:12:00,
2013-07-30 19:22:00,81.0,50.0,30.01,West,280,8.0,16.0,34,-99.99,,,-99.99,,2013-07-31 02:22:00,
2013-07-30 19:32:00,81.0,50.0,30.01,West,280,8.0,16.0,34,-99.99,,,-99.99,,2013-07-31 02:32:00,
2013-07-30 19:52:00,81.0,52.0,30.00,WNW,300,7.0,-999.0,36,-99.99,,,-99.99,,2013-07-31 02:52:00,
2013-07-30 20:22:00,81.0,50.0,30.01,WNW,290,5.0,-999.0,34,-99.99,,,-99.99,,2013-07-31 03:22:00,
2013-07-30 20:32:00,81.0,50.0,30.01,WNW,290,5.0,-999.0,34,-99.99,,,-99.99,,2013-07-31 03:32:00,
2013-07-30 21:22:00,75.0,52.0,30.03,West,280,5.0,-999.0,44,-99.99,,,-99.99,,2013-07-31 04:22:00,
2013-07-30 21:32:00,75.0,52.0,30.03,West,280,5.0,-999.0,44,-99.99,,,-99.99,,2013-07-31 04:32:00,
2013-07-30 21:52:00,75.0,50.0,30.03,WSW,250,3.0,-999.0,41,-99.99,,,-99.99,,2013-07-31 04:52:00,
2013-07-30 22:11:00,73.0,50.0,30.06,North,0,0.0,-999.0,43,-99.99,,,-99.99,,2013-07-31 05:11:00,
2013-07-30 22:22:00,73.0,50.0,30.06,North,0,0.0,-999.0,43,-99.99,,,-99.99,,2013-07-31 05:22:00,
2013-07-30 22:32:00,73.0,50.0,30.06,North,0,0.0,-999.0,43,-99.99,,,-99.99,,2013-07-31 05:32:00,
2013-07-30 22:52:00,70.0,54.0,30.06,North,0,0.0,-999.0,56,-99.99,,,-99.99,,2013-07-31 05:52:00,
2013-07-30 23:22:00,70.0,52.0,30.07,West,280,3.0,-999.0,52,-99.99,,,-99.99,,2013-07-31 06:22:00,
2013-07-30 23:32:00,70.0,52.0,30.07,West,280,3.0,-999.0,52,-99.99,,,-99.99,,2013-07-31 06:32:00,
2013-07-30 23:52:00,68.0,52.0,30.07,North,0,0.0,-999.0,56,-99.99,,,-99.99,,2013-07-31 06:52:00,